iso_date,epoch_date,Year,Hour,Min,DOY,POS_DOY,Lat,Lon,BP,Ts,Ta,has_bp,has_ts,has_ta,BuoyID,Buoy_Type,Buoy_Owner,Logistics,Hemisphere
2017-07-15T13:00:28Z,1500123629,2017,13,0,196.542,196.544,50.79221,-153.22209,1018.1,10.75,-35.54,yes,yes,yes,145802,AXIB,USIABP,unknown,South
2017-07-15T13:59:31Z,1500127171,2017,14,0,196.583,196.584,51.00456,-153.17613,1017.8,10.6,-35.74,yes,yes,yes,145802,AXIB,USIABP,unknown,South
2017-07-15T15:00:00Z,1500130800,2017,15,0,196.625,196.626,51.22514,-153.12743,1017.7,10.46,-35.36,yes,yes,yes,145802,AXIB,USIABP,unknown,South
2017-07-15T16:00:28Z,1500134429,2017,16,0,196.667,196.669,51.46251,-153.074,1017.9,10.34,-35.37,yes,yes,yes,145802,AXIB,USIABP,unknown,South
2017-07-15T16:59:31Z,1500137971,2017,17,0,196.708,196.71,51.68387,-153.0245,1018.0,10.21,-35.48,yes,yes,yes,145802,AXIB,USIABP,unknown,South
2017-07-15T18:00:00Z,1500141600,2017,18,0,196.75,196.75,51.89106,-152.97716,1017.9,10.09,-35.81,yes,yes,yes,145802,AXIB,USIABP,unknown,South
2017-07-15T19:00:28Z,1500145229,2017,19,0,196.792,196.792,52.11714,-152.9259,1017.9,10.0,-35.39,yes,yes,yes,145802,AXIB,USIABP,unknown,South
2017-07-15T21:00:00Z,1500152400,2017,21,0,196.875,196.876,52.56827,-152.82008,1017.4,9.99,-35.2,yes,yes,yes,145802,AXIB,USIABP,unknown,South
2017-07-15T22:00:28Z,1500156029,2017,22,0,196.917,196.917,52.78137,-152.76987,1017.3,10.04,-37.42,yes,yes,yes,145802,AXIB,USIABP,unknown,South
2017-07-16T01:00:28Z,1500166829,2017,1,0,197.042,197.043,53.47072,-152.60269,1016.4,10.61,41.8,yes,yes,yes,145802,AXIB,USIABP,unknown,South
2017-07-16T03:00:00Z,1500174000,2017,3,0,197.125,197.126,53.92188,-152.4909,1015.8,10.88,-39.6,yes,yes,yes,145802,AXIB,USIABP,unknown,South
2017-07-16T04:00:28Z,1500177629,2017,4,0,197.167,197.167,54.15127,-152.41547,1015.6,10.97,-39.31,yes,yes,yes,145802,AXIB,USIABP,unknown,South
2017-07-16T06:00:00Z,1500184800,2017,6,0,197.25,197.251,54.5973,-152.2182,1015.7,11.08,-39.02,yes,yes,yes,145802,AXIB,USIABP,unknown,South
2017-07-16T07:59:31Z,1500191971,2017,8,0,197.333,197.335,55.04355,-152.01588,1016.4,11.07,-38.39,yes,yes,yes,145802,AXIB,USIABP,unknown,South
2017-07-16T13:00:28Z,1500210029,2017,13,0,197.542,197.544,56.14934,-151.49638,1016.5,10.87,-37.3,yes,yes,yes,145802,AXIB,USIABP,unknown,South
2017-07-16T15:00:00Z,1500217200,2017,15,0,197.625,197.626,56.58486,-151.28291,1016.8,10.83,-36.72,yes,yes,yes,145802,AXIB,USIABP,unknown,South
2017-07-16T16:59:31Z,1500224371,2017,17,0,197.708,197.71,57.01741,-151.06635,1017.3,10.81,-36.44,yes,yes,yes,145802,AXIB,USIABP,unknown,South
2017-07-16T18:00:00Z,1500228000,2017,18,0,197.75,197.753,57.24755,-150.94835,1017.6,10.83,-36.72,yes,yes,yes,145802,AXIB,USIABP,unknown,South
2017-07-16T19:00:28Z,1500231629,2017,19,0,197.792,197.794,57.43643,-150.85042,1017.9,10.87,-36.08,yes,yes,yes,145802,AXIB,USIABP,unknown,South
2017-07-16T19:59:31Z,1500235171,2017,20,0,197.833,197.834,57.60136,-150.762,1018.4,10.96,-35.99,yes,yes,yes,145802,AXIB,USIABP,unknown,South
2017-07-16T22:00:28Z,1500242429,2017,22,0,197.917,197.917,57.95026,-150.5566,1018.9,11.41,-32.14,yes,yes,yes,145802,AXIB,USIABP,unknown,South
2017-07-16T22:59:31Z,1500245971,2017,23,0,197.958,197.958,58.13377,-150.44865,1019.2,11.54,-30.22,yes,yes,yes,145802,AXIB,USIABP,unknown,South
2017-07-17T00:00:00Z,1500249600,2017,0,0,198.0,198.0,58.30979,-150.34563,1019.5,11.67,-30.3,yes,yes,yes,145802,AXIB,USIABP,unknown,South
2017-07-17T01:00:28Z,1500253229,2017,1,0,198.042,198.042,58.32987,-150.35466,1019.5,11.72,-32.29,yes,yes,yes,145802,AXIB,USIABP,unknown,South
2017-07-17T01:59:31Z,1500256771,2017,2,0,198.083,198.083,58.35252,-150.36327,1019.3,11.69,-33.73,yes,yes,yes,145802,AXIB,USIABP,unknown,South
2017-07-17T03:00:00Z,1500260400,2017,3,0,198.125,198.125,58.30766,-150.30402,1019.4,11.74,-32.74,yes,yes,yes,145802,AXIB,USIABP,unknown,South
2017-07-17T04:00:28Z,1500264029,2017,4,0,198.167,198.167,58.3341,-150.29425,1019.7,11.61,-31.36,yes,yes,yes,145802,AXIB,USIABP,unknown,South
2017-07-17T04:59:31Z,1500267571,2017,5,0,198.208,198.208,58.35756,-150.26152,1020.0,11.38,-30.05,yes,yes,yes,145802,AXIB,USIABP,unknown,South
2017-07-17T06:00:00Z,1500271200,2017,6,0,198.25,198.25,58.37036,-150.21436,1020.3,11.13,-29.78,yes,yes,yes,145802,AXIB,USIABP,unknown,South
2017-07-17T07:59:31Z,1500278371,2017,8,0,198.333,198.334,58.70695,-149.97734,1021.3,10.93,-27.18,yes,yes,yes,145802,AXIB,USIABP,unknown,South
2017-07-17T13:00:28Z,1500296429,2017,13,0,198.542,198.542,59.60093,-149.36147,1022.8,11.27,-26.88,yes,yes,yes,145802,AXIB,USIABP,unknown,South
2017-07-17T13:59:31Z,1500299971,2017,14,0,198.583,198.583,59.81372,-149.45277,1023.0,11.24,-27.09,yes,yes,yes,145802,AXIB,USIABP,unknown,South
2017-07-17T15:00:00Z,1500303600,2017,15,0,198.625,198.625,60.02511,-149.3746,1022.9,11.19,-27.12,yes,yes,yes,145802,AXIB,USIABP,unknown,South
2017-07-17T16:00:28Z,1500307229,2017,16,0,198.667,198.667,60.116,-149.42557,1022.9,11.02,-27.37,yes,yes,yes,145802,AXIB,USIABP,unknown,South
2017-07-17T18:00:00Z,1500314400,2017,18,0,198.75,198.75,60.11744,-149.4263,1023.3,10.59,-27.58,yes,yes,yes,145802,AXIB,USIABP,unknown,South
2017-07-17T19:59:31Z,1500321571,2017,20,0,198.833,198.833,60.11834,-149.4269,1023.5,10.35,-27.35,yes,yes,yes,145802,AXIB,USIABP,unknown,South
2017-07-17T21:00:00Z,1500325200,2017,21,0,198.875,198.875,60.11918,-149.42612,1023.6,10.32,-27.33,yes,yes,yes,145802,AXIB,USIABP,unknown,South
2017-07-17T22:00:28Z,1500328829,2017,22,0,198.917,198.917,60.11762,-149.42773,1023.4,10.32,-27.42,yes,yes,yes,145802,AXIB,USIABP,unknown,South
2017-07-17T22:59:31Z,1500332371,2017,23,0,198.958,198.958,60.11813,-149.42711,1023.1,10.56,-27.0,yes,yes,yes,145802,AXIB,USIABP,unknown,South
2017-07-18T00:00:00Z,1500336000,2017,0,0,199.0,199.0,60.11863,-149.42764,1022.7,10.88,-26.88,yes,yes,yes,145802,AXIB,USIABP,unknown,South
2017-07-18T01:59:31Z,1500343171,2017,2,0,199.083,199.083,60.11827,-149.4267,1021.9,11.55,-26.91,yes,yes,yes,145802,AXIB,USIABP,unknown,South
2017-07-18T03:00:00Z,1500346800,2017,3,0,199.125,199.125,60.11789,-149.42596,1021.6,11.76,-27.16,yes,yes,yes,145802,AXIB,USIABP,unknown,South
2017-07-18T04:00:28Z,1500350429,2017,4,0,199.167,199.167,60.11853,-149.42664,1021.4,11.91,-27.31,yes,yes,yes,145802,AXIB,USIABP,unknown,South
2017-07-18T04:59:31Z,1500353971,2017,5,0,199.208,199.208,60.11847,-149.42686,1021.0,12.0,-27.5,yes,yes,yes,145802,AXIB,USIABP,unknown,South
2017-07-18T06:00:00Z,1500357600,2017,6,0,199.25,199.25,60.11851,-149.42638,1020.8,12.05,-27.67,yes,yes,yes,145802,AXIB,USIABP,unknown,South
2017-07-18T13:59:31Z,1500386371,2017,14,0,199.583,199.583,60.11704,-149.42935,1017.8,11.23,-29.29,yes,yes,yes,145802,AXIB,USIABP,unknown,South
2017-07-18T15:00:00Z,1500390000,2017,15,0,199.625,199.625,60.1195,-149.42677,1017.4,11.07,-29.37,yes,yes,yes,145802,AXIB,USIABP,unknown,South
2017-07-18T16:00:28Z,1500393629,2017,16,0,199.667,199.667,60.11822,-149.42706,1016.9,10.91,-29.51,yes,yes,yes,145802,AXIB,USIABP,unknown,South
2017-07-18T16:59:31Z,1500397171,2017,17,0,199.708,199.708,60.11825,-149.42667,1016.6,10.62,-29.26,yes,yes,yes,145802,AXIB,USIABP,unknown,South
2017-07-18T18:00:00Z,1500400800,2017,18,0,199.75,199.75,60.11813,-149.42659,1016.2,10.31,-29.92,yes,yes,yes,145802,AXIB,USIABP,unknown,South
2017-07-18T19:00:28Z,1500404429,2017,19,0,199.792,199.792,60.11833,-149.42715,1015.8,9.92,-30.54,yes,yes,yes,145802,AXIB,USIABP,unknown,South
2017-07-18T19:59:31Z,1500407971,2017,20,0,199.833,199.833,60.11831,-149.42674,1015.4,9.64,-30.4,yes,yes,yes,145802,AXIB,USIABP,unknown,South
2017-07-18T21:00:00Z,1500411600,2017,21,0,199.875,199.875,60.11803,-149.42776,1015.2,9.48,-30.22,yes,yes,yes,145802,AXIB,USIABP,unknown,South
2017-07-18T22:00:28Z,1500415229,2017,22,0,199.917,199.917,60.11842,-149.42683,1015.1,9.36,-30.55,yes,yes,yes,145802,AXIB,USIABP,unknown,South
2017-07-19T00:00:00Z,1500422400,2017,0,0,200.0,200.0,60.11812,-149.4278,1014.0,9.16,-30.77,yes,yes,yes,145802,AXIB,USIABP,unknown,South
2017-07-19T01:59:31Z,1500429571,2017,2,0,200.083,200.083,60.11817,-149.42711,1012.4,9.23,-30.86,yes,yes,yes,145802,AXIB,USIABP,unknown,South
2017-07-19T03:00:00Z,1500433200,2017,3,0,200.125,200.125,60.11836,-149.42671,1012.0,9.28,-30.92,yes,yes,yes,145802,AXIB,USIABP,unknown,South
2017-07-19T04:00:28Z,1500436829,2017,4,0,200.167,200.167,60.11793,-149.4275,1011.4,9.32,-31.22,yes,yes,yes,145802,AXIB,USIABP,unknown,South
2017-07-19T04:59:31Z,1500440371,2017,5,0,200.208,200.208,60.11821,-149.42665,1010.8,9.36,-31.79,yes,yes,yes,145802,AXIB,USIABP,unknown,South
2017-07-19T06:00:00Z,1500444000,2017,6,0,200.25,200.25,60.11835,-149.42703,1010.5,9.41,-32.52,yes,yes,yes,145802,AXIB,USIABP,unknown,South
2017-07-19T07:00:28Z,1500447629,2017,7,0,200.292,200.292,60.11807,-149.4271,1010.4,9.46,-33.21,yes,yes,yes,145802,AXIB,USIABP,unknown,South
2017-07-19T12:00:00Z,1500465600,2017,12,0,200.5,200.5,60.11853,-149.42693,1009.9,9.6,-38.37,yes,yes,yes,145802,AXIB,USIABP,unknown,South
2017-07-19T13:59:31Z,1500472771,2017,14,0,200.583,200.583,60.11803,-149.4267,1009.3,9.58,-36.68,yes,yes,yes,145802,AXIB,USIABP,unknown,South
2017-07-19T16:00:28Z,1500480029,2017,16,0,200.667,200.667,60.11911,-149.42784,1008.8,9.53,-37.88,yes,yes,yes,145802,AXIB,USIABP,unknown,South
2017-07-19T16:59:31Z,1500483571,2017,17,0,200.708,200.711,60.11982,-149.42754,1009.0,9.5,-38.48,yes,yes,yes,145802,AXIB,USIABP,unknown,South
2017-07-19T18:00:00Z,1500487200,2017,18,0,200.75,200.75,60.11753,-149.42758,1008.8,9.49,-38.45,yes,yes,yes,145802,AXIB,USIABP,unknown,South
2017-07-19T19:00:28Z,1500490829,2017,19,0,200.792,200.792,60.11743,-149.427,1008.8,9.53,-39.71,yes,yes,yes,145802,AXIB,USIABP,unknown,South
2017-07-19T21:00:00Z,1500498000,2017,21,0,200.875,200.875,60.11813,-149.42783,1009.1,9.65,41.73,yes,yes,yes,145802,AXIB,USIABP,unknown,South
2017-07-19T22:00:28Z,1500501629,2017,22,0,200.917,200.917,60.11751,-149.42741,1009.5,9.76,41.24,yes,yes,yes,145802,AXIB,USIABP,unknown,South
2017-07-20T00:00:00Z,1500508800,2017,0,0,201.0,201.001,60.11763,-149.42746,1009.4,9.9,40.04,yes,yes,yes,145802,AXIB,USIABP,unknown,South
2017-07-20T01:00:28Z,1500512429,2017,1,0,201.042,201.042,60.11847,-149.4273,1009.4,9.83,39.75,yes,yes,yes,145802,AXIB,USIABP,unknown,South
2017-07-20T03:00:00Z,1500519600,2017,3,0,201.125,201.125,60.11809,-149.42722,1009.8,9.82,40.02,yes,yes,yes,145802,AXIB,USIABP,unknown,South
2017-07-20T04:00:28Z,1500523229,2017,4,0,201.167,201.167,60.11768,-149.42683,1009.8,9.87,39.17,yes,yes,yes,145802,AXIB,USIABP,unknown,South
2017-07-20T04:59:31Z,1500526771,2017,5,0,201.208,201.208,60.11809,-149.42734,1009.9,9.92,39.22,yes,yes,yes,145802,AXIB,USIABP,unknown,South
2017-07-20T06:00:00Z,1500530400,2017,6,0,201.25,201.253,60.11883,-149.42805,1010.0,9.99,40.68,yes,yes,yes,145802,AXIB,USIABP,unknown,South
2017-07-20T07:00:28Z,1500534029,2017,7,0,201.292,201.292,60.11818,-149.42754,1010.0,10.05,40.3,yes,yes,yes,145802,AXIB,USIABP,unknown,South
2017-07-20T13:59:31Z,1500559171,2017,14,0,201.583,201.586,60.3896,-149.34372,1010.1,9.9,38.75,yes,yes,yes,145802,AXIB,USIABP,unknown,South
2017-07-20T15:00:00Z,1500562800,2017,15,0,201.625,201.625,60.11852,-149.42677,1010.1,9.86,39.92,yes,yes,yes,145802,AXIB,USIABP,unknown,South
2017-07-20T16:59:31Z,1500569971,2017,17,0,201.708,201.708,60.11811,-149.42734,1011.0,9.62,39.24,yes,yes,yes,145802,AXIB,USIABP,unknown,South
2017-07-20T18:00:00Z,1500573600,2017,18,0,201.75,201.75,60.11815,-149.42705,1011.5,9.48,41.36,yes,yes,yes,145802,AXIB,USIABP,unknown,South
2017-07-20T19:00:28Z,1500577229,2017,19,0,201.792,201.792,60.1185,-149.42671,1011.9,9.36,41.22,yes,yes,yes,145802,AXIB,USIABP,unknown,South
2017-07-20T19:59:31Z,1500580771,2017,20,0,201.833,201.833,60.1182,-149.42683,1012.1,9.33,41.07,yes,yes,yes,145802,AXIB,USIABP,unknown,South
2017-07-20T21:00:00Z,1500584400,2017,21,0,201.875,201.875,60.11811,-149.42703,1012.5,9.3,41.46,yes,yes,yes,145802,AXIB,USIABP,unknown,South
2017-07-20T22:00:28Z,1500588029,2017,22,0,201.917,201.917,60.11835,-149.42671,1012.8,9.33,-38.64,yes,yes,yes,145802,AXIB,USIABP,unknown,South
2017-07-20T22:59:31Z,1500591571,2017,23,0,201.958,201.958,60.11829,-149.42697,1012.9,9.31,-38.75,yes,yes,yes,145802,AXIB,USIABP,unknown,South
2017-07-21T00:00:00Z,1500595200,2017,0,0,202.0,202.0,60.11959,-149.42686,1012.8,9.5,-38.91,yes,yes,yes,145802,AXIB,USIABP,unknown,South
2017-07-21T01:00:28Z,1500598829,2017,1,0,202.042,202.042,60.1181,-149.42667,1012.8,9.8,-38.9,yes,yes,yes,145802,AXIB,USIABP,unknown,South
2017-07-21T01:59:31Z,1500602371,2017,2,0,202.083,202.083,60.11818,-149.42691,1012.8,9.94,-38.86,yes,yes,yes,145802,AXIB,USIABP,unknown,South
2017-07-21T03:00:00Z,1500606000,2017,3,0,202.125,202.125,60.11823,-149.42693,1012.8,10.11,-38.47,yes,yes,yes,145802,AXIB,USIABP,unknown,South
2017-07-21T04:00:28Z,1500609629,2017,4,0,202.167,202.167,60.118,-149.42693,1013.2,10.28,-38.52,yes,yes,yes,145802,AXIB,USIABP,unknown,South
2017-07-21T04:59:31Z,1500613171,2017,5,0,202.208,202.208,60.11826,-149.42673,1013.2,10.44,-38.09,yes,yes,yes,145802,AXIB,USIABP,unknown,South
2017-07-21T06:00:00Z,1500616800,2017,6,0,202.25,202.25,60.1181,-149.42706,1013.3,10.5,-37.09,yes,yes,yes,145802,AXIB,USIABP,unknown,South
2017-07-21T07:00:28Z,1500620429,2017,7,0,202.292,202.292,60.11828,-149.42696,1013.6,10.48,-37.71,yes,yes,yes,145802,AXIB,USIABP,unknown,South
2017-07-21T10:59:31Z,1500634771,2017,11,0,202.458,202.458,60.11823,-149.4268,1014.2,9.54,-37.83,yes,yes,yes,145802,AXIB,USIABP,unknown,South
2017-07-21T12:00:00Z,1500638400,2017,12,0,202.5,202.5,60.11721,-149.42867,1014.2,9.32,-38.22,yes,yes,yes,145802,AXIB,USIABP,unknown,South
2017-07-21T13:00:28Z,1500642029,2017,13,0,202.542,202.542,60.11828,-149.42706,1014.3,9.0,-38.38,yes,yes,yes,145802,AXIB,USIABP,unknown,South
2017-07-21T13:59:31Z,1500645571,2017,14,0,202.583,202.583,60.1178,-149.42719,1014.7,8.81,-37.52,yes,yes,yes,145802,AXIB,USIABP,unknown,South
2017-07-21T15:00:00Z,1500649200,2017,15,0,202.625,202.625,60.11855,-149.42737,1014.6,8.69,-38.98,yes,yes,yes,145802,AXIB,USIABP,unknown,South
2017-07-21T16:00:28Z,1500652829,2017,16,0,202.667,202.667,60.11838,-149.42702,1014.4,8.61,-39.63,yes,yes,yes,145802,AXIB,USIABP,unknown,South
2017-07-21T16:59:31Z,1500656371,2017,17,0,202.708,202.708,60.11839,-149.4271,1014.4,8.65,-39.86,yes,yes,yes,145802,AXIB,USIABP,unknown,South
2017-07-21T18:00:00Z,1500660000,2017,18,0,202.75,202.75,60.11778,-149.42603,1014.3,8.75,-38.77,yes,yes,yes,145802,AXIB,USIABP,unknown,South
2017-07-21T19:00:28Z,1500663629,2017,19,0,202.792,202.792,60.11376,-149.42596,1014.0,9.03,-39.24,yes,yes,yes,145802,AXIB,USIABP,unknown,South
2017-07-21T19:59:31Z,1500667171,2017,20,0,202.833,202.833,60.08349,-149.40948,1013.8,9.46,-39.48,yes,yes,yes,145802,AXIB,USIABP,unknown,South
2017-07-21T22:00:28Z,1500674429,2017,22,0,202.917,202.917,60.06271,-149.40276,1013.6,10.38,-37.81,yes,yes,yes,145802,AXIB,USIABP,unknown,South
2017-07-21T22:59:31Z,1500677971,2017,23,0,202.958,202.958,59.91968,-149.41037,1013.8,10.77,-38.85,yes,yes,yes,145802,AXIB,USIABP,unknown,South
2017-07-22T01:59:31Z,1500688771,2017,2,0,203.083,203.086,59.25616,-149.63768,1013.4,11.6,-37.44,yes,yes,yes,145802,AXIB,USIABP,unknown,South
2017-07-22T03:00:00Z,1500692400,2017,3,0,203.125,203.126,59.22934,-149.65936,1013.2,11.8,-38.44,yes,yes,yes,145802,AXIB,USIABP,unknown,South
2017-07-22T04:00:28Z,1500696029,2017,4,0,203.167,203.167,59.07368,-149.83218,1013.0,12.07,-38.36,yes,yes,yes,145802,AXIB,USIABP,unknown,South
2017-07-22T06:00:00Z,1500703200,2017,6,0,203.25,203.252,58.65066,-150.27954,1012.9,12.37,-37.56,yes,yes,yes,145802,AXIB,USIABP,unknown,South
2017-07-22T13:00:28Z,1500728429,2017,13,0,203.542,203.544,57.27352,-151.83049,1013.6,11.38,-39.67,yes,yes,yes,145802,AXIB,USIABP,unknown,South
2017-07-22T13:59:31Z,1500731971,2017,14,0,203.583,203.586,57.09676,-152.10316,1014.1,11.13,-38.92,yes,yes,yes,145802,AXIB,USIABP,unknown,South
2017-07-22T15:00:00Z,1500735600,2017,15,0,203.625,203.626,56.92805,-152.36626,1014.4,10.88,-39.84,yes,yes,yes,145802,AXIB,USIABP,unknown,South
2017-07-22T16:59:31Z,1500742771,2017,17,0,203.708,203.711,56.55576,-152.92546,1015.2,10.59,-39.75,yes,yes,yes,145802,AXIB,USIABP,unknown,South
2017-07-22T18:00:00Z,1500746400,2017,18,0,203.75,203.751,56.40065,-153.17229,1015.6,10.61,-38.84,yes,yes,yes,145802,AXIB,USIABP,unknown,South
2017-07-22T19:00:28Z,1500750029,2017,19,0,203.792,203.792,56.25909,-153.45544,1016.0,10.7,-39.6,yes,yes,yes,145802,AXIB,USIABP,unknown,South
2017-07-22T19:59:31Z,1500753571,2017,20,0,203.833,203.833,56.09958,-153.77428,1016.4,10.87,-39.56,yes,yes,yes,145802,AXIB,USIABP,unknown,South
2017-07-22T22:00:28Z,1500760829,2017,22,0,203.917,203.919,55.78194,-154.4043,1017.1,11.31,-39.04,yes,yes,yes,145802,AXIB,USIABP,unknown,South
2017-07-22T22:59:31Z,1500764371,2017,23,0,203.958,203.958,55.63636,-154.69241,1017.4,11.52,-39.5,yes,yes,yes,145802,AXIB,USIABP,unknown,South
2017-07-23T01:00:28Z,1500771629,2017,1,0,204.042,204.042,55.35734,-155.36707,1017.7,11.85,-39.8,yes,yes,yes,145802,AXIB,USIABP,unknown,South
2017-07-23T01:59:31Z,1500775171,2017,2,0,204.083,204.083,55.25357,-155.75029,1017.9,11.98,-39.12,yes,yes,yes,145802,AXIB,USIABP,unknown,South
2017-07-23T03:00:00Z,1500778800,2017,3,0,204.125,204.127,55.14146,-156.15489,1018.2,12.09,-38.86,yes,yes,yes,145802,AXIB,USIABP,unknown,South
2017-07-23T04:00:28Z,1500782429,2017,4,0,204.167,204.169,55.03529,-156.53922,1018.5,12.21,-38.85,yes,yes,yes,145802,AXIB,USIABP,unknown,South
2017-07-23T04:59:31Z,1500785971,2017,5,0,204.208,204.211,54.92186,-156.9161,1018.6,12.34,-39.05,yes,yes,yes,145802,AXIB,USIABP,unknown,South
2017-07-23T06:00:00Z,1500789600,2017,6,0,204.25,204.253,54.82382,-157.29836,1019.0,12.43,-38.47,yes,yes,yes,145802,AXIB,USIABP,unknown,South
2017-07-23T07:00:28Z,1500793229,2017,7,0,204.292,204.293,54.72542,-157.66434,1019.3,12.47,-39.31,yes,yes,yes,145802,AXIB,USIABP,unknown,South
2017-07-23T13:00:28Z,1500814829,2017,13,0,204.542,204.542,54.24665,-160.0017,1020.1,12.18,41.89,yes,yes,yes,145802,AXIB,USIABP,unknown,South
2017-07-23T13:59:31Z,1500818371,2017,14,0,204.583,204.586,54.22365,-160.44148,1020.4,12.07,-39.89,yes,yes,yes,145802,AXIB,USIABP,unknown,South
2017-07-23T15:00:00Z,1500822000,2017,15,0,204.625,204.626,54.20293,-160.82745,1021.0,11.94,41.24,yes,yes,yes,145802,AXIB,USIABP,unknown,South
2017-07-23T16:00:28Z,1500825629,2017,16,0,204.667,204.668,54.18718,-161.20883,1021.6,11.86,41.13,yes,yes,yes,145802,AXIB,USIABP,unknown,South
2017-07-23T16:59:31Z,1500829171,2017,17,0,204.708,204.708,54.17977,-161.58356,1022.2,11.78,40.88,yes,yes,yes,145802,AXIB,USIABP,unknown,South
2017-07-23T18:00:00Z,1500832800,2017,18,0,204.75,204.75,54.14995,-161.98624,1022.7,11.72,41.2,yes,yes,yes,145802,AXIB,USIABP,unknown,South
2017-07-23T19:59:31Z,1500839971,2017,20,0,204.833,204.833,54.17273,-162.7853,1023.4,11.85,-29.88,yes,yes,yes,145802,AXIB,USIABP,unknown,South
2017-07-23T21:00:00Z,1500843600,2017,21,0,204.875,204.875,54.2064,-163.18723,1023.9,12.07,-31.89,yes,yes,yes,145802,AXIB,USIABP,unknown,South
2017-07-23T22:59:31Z,1500850771,2017,23,0,204.958,204.958,54.2707,-163.9524,1023.5,12.09,33.32,yes,yes,yes,145802,AXIB,USIABP,unknown,South
2017-07-24T01:00:28Z,1500858029,2017,1,0,205.042,205.042,54.3414,-164.76855,1023.8,11.16,27.03,yes,yes,yes,145802,AXIB,USIABP,unknown,South
2017-07-24T01:59:31Z,1500861571,2017,2,0,205.083,205.083,54.42805,-165.20345,1024.4,10.78,27.48,yes,yes,yes,145802,AXIB,USIABP,unknown,South
2017-07-24T03:00:00Z,1500865200,2017,3,0,205.125,205.125,54.52753,-165.5899,1024.4,10.58,29.27,yes,yes,yes,145802,AXIB,USIABP,unknown,South
2017-07-24T04:00:28Z,1500868829,2017,4,0,205.167,205.167,54.69722,-165.8449,1024.2,10.38,30.06,yes,yes,yes,145802,AXIB,USIABP,unknown,South
2017-07-24T04:59:31Z,1500872371,2017,5,0,205.208,205.208,54.85983,-166.09299,1024.1,10.27,31.55,yes,yes,yes,145802,AXIB,USIABP,unknown,South
2017-07-24T06:00:00Z,1500876000,2017,6,0,205.25,205.251,55.00328,-166.4004,1023.9,10.2,32.37,yes,yes,yes,145802,AXIB,USIABP,unknown,South
2017-07-24T07:00:28Z,1500879629,2017,7,0,205.292,205.292,55.13698,-166.69144,1023.7,10.1,34.29,yes,yes,yes,145802,AXIB,USIABP,unknown,South
2017-07-24T15:00:00Z,1500908400,2017,15,0,205.625,205.628,56.2615,-169.18202,1018.8,8.96,40.14,yes,yes,yes,145802,AXIB,USIABP,unknown,South
2017-07-24T16:00:28Z,1500912029,2017,16,0,205.667,205.669,56.40572,-169.50294,1018.1,8.86,40.65,yes,yes,yes,145802,AXIB,USIABP,unknown,South
2017-07-24T16:59:31Z,1500915571,2017,17,0,205.708,205.709,56.5405,-169.79324,1017.6,8.76,41.14,yes,yes,yes,145802,AXIB,USIABP,unknown,South
2017-07-24T18:00:00Z,1500919200,2017,18,0,205.75,205.75,56.6751,-169.806,1017.5,8.54,-38.64,yes,yes,yes,145802,AXIB,USIABP,unknown,South
2017-07-24T19:00:28Z,1500922829,2017,19,0,205.792,205.792,56.68291,-169.79848,1017.3,8.06,-32.22,yes,yes,yes,145802,AXIB,USIABP,unknown,South
2017-07-24T19:59:31Z,1500926371,2017,20,0,205.833,205.834,56.67616,-169.79556,1017.2,7.62,-32.26,yes,yes,yes,145802,AXIB,USIABP,unknown,South
2017-07-24T21:00:00Z,1500930000,2017,21,0,205.875,205.875,56.68343,-169.80057,1017.4,7.25,-30.98,yes,yes,yes,145802,AXIB,USIABP,unknown,South
2017-07-24T22:00:28Z,1500933629,2017,22,0,205.917,205.917,56.67639,-169.82718,1017.1,7.08,-30.85,yes,yes,yes,145802,AXIB,USIABP,unknown,South
2017-07-24T22:59:31Z,1500937171,2017,23,0,205.958,205.958,56.69898,-169.87346,1017.2,7.03,-30.21,yes,yes,yes,145802,AXIB,USIABP,unknown,South
2017-07-25T01:00:28Z,1500944429,2017,1,0,206.042,206.042,56.69268,-169.82184,1017.3,7.27,-29.53,yes,yes,yes,145802,AXIB,USIABP,unknown,South
2017-07-25T01:59:31Z,1500947971,2017,2,0,206.083,206.083,56.69061,-169.79367,1017.2,7.41,-29.74,yes,yes,yes,145802,AXIB,USIABP,unknown,South
2017-07-25T03:00:00Z,1500951600,2017,3,0,206.125,206.125,56.75336,-169.87903,1017.3,7.57,-29.26,yes,yes,yes,145802,AXIB,USIABP,unknown,South
2017-07-25T04:00:28Z,1500955229,2017,4,0,206.167,206.167,56.79477,-169.89497,1017.2,7.64,-29.29,yes,yes,yes,145802,AXIB,USIABP,unknown,South
2017-07-25T04:59:31Z,1500958771,2017,5,0,206.208,206.208,56.84868,-169.9073,1017.6,7.69,-28.19,yes,yes,yes,145802,AXIB,USIABP,unknown,South
2017-07-25T06:00:00Z,1500962400,2017,6,0,206.25,206.25,56.68442,-169.78618,1017.7,7.52,-28.97,yes,yes,yes,145802,AXIB,USIABP,unknown,South
2017-07-25T07:00:28Z,1500966029,2017,7,0,206.292,206.292,56.68103,-169.79333,1018.2,7.18,-29.1,yes,yes,yes,145802,AXIB,USIABP,unknown,South
2017-07-25T07:59:31Z,1500969571,2017,8,0,206.333,206.333,56.6808,-169.79343,1018.8,6.79,-29.48,yes,yes,yes,145802,AXIB,USIABP,unknown,South
2017-07-25T10:59:31Z,1500980371,2017,11,0,206.458,206.458,56.6806,-169.79343,1018.9,6.11,-31.14,yes,yes,yes,145802,AXIB,USIABP,unknown,South
2017-07-25T13:00:28Z,1500987629,2017,13,0,206.542,206.542,56.68131,-169.79333,1018.8,5.93,-31.72,yes,yes,yes,145802,AXIB,USIABP,unknown,South
2017-07-25T13:59:31Z,1500991171,2017,14,0,206.583,206.583,56.68119,-169.79327,1019.1,5.93,-32.07,yes,yes,yes,145802,AXIB,USIABP,unknown,South
2017-07-25T15:00:00Z,1500994800,2017,15,0,206.625,206.625,56.68057,-169.79327,1019.3,5.94,-31.91,yes,yes,yes,145802,AXIB,USIABP,unknown,South
2017-07-25T16:00:28Z,1500998429,2017,16,0,206.667,206.667,56.68063,-169.79286,1019.5,5.98,-32.01,yes,yes,yes,145802,AXIB,USIABP,unknown,South
2017-07-25T16:59:31Z,1501001971,2017,17,0,206.708,206.708,56.68037,-169.79321,1019.6,5.99,-32.16,yes,yes,yes,145802,AXIB,USIABP,unknown,South
2017-07-25T18:00:00Z,1501005600,2017,18,0,206.75,206.751,56.68167,-169.80525,1019.6,5.99,-32.5,yes,yes,yes,145802,AXIB,USIABP,unknown,South
2017-07-25T19:00:28Z,1501009229,2017,19,0,206.792,206.792,56.6816,-169.80003,1019.9,5.98,-32.31,yes,yes,yes,145802,AXIB,USIABP,unknown,South
2017-07-25T19:59:31Z,1501012771,2017,20,0,206.833,206.833,56.70395,-169.7678,1020.1,6.02,-32.43,yes,yes,yes,145802,AXIB,USIABP,unknown,South
2017-07-25T21:00:00Z,1501016400,2017,21,0,206.875,206.875,56.89298,-169.558,1019.9,6.12,-32.35,yes,yes,yes,145802,AXIB,USIABP,unknown,South
2017-07-25T22:00:28Z,1501020029,2017,22,0,206.917,206.918,57.08447,-169.34258,1019.5,6.24,-32.43,yes,yes,yes,145802,AXIB,USIABP,unknown,South